St. Joseph, KS

7:25 AM CST on December 14, 2019 (GMT -0600)
Rosecrans Memorial

Weather History for KSTJ - October, 2019

Change the Weather History Date:

Friday, October 11, 2019

  Actual Average Record
Temperature  
Mean Temperature 42 °F 57 °F  
Max Temperature 49 °F 69 °F 89 °F (1989)
Min Temperature 35 °F 44 °F 24 °F (1987)
Degree Days  
Heating Degree Days 23 9  
Month to date heating degree days 86 86  
Since 1 July heating degree days 91 166  
Cooling Degree Days 0 1  
Month to date cooling degree days 17 16  
Year to date cooling degree days 1466 1215  
Moisture  
Dew Point 27 °F    
Average Humidity 54    
Maximum Humidity 73    
Minimum Humidity 34    
Precipitation  
Precipitation 0.00 in 0.09 in 2.20 in (1973)
Month to date precipitation 2.35 1.00  
Year to date precipitation 35.95 30.72  
Sea Level Pressure  
Sea Level Pressure 30.16 in    
Wind  
Wind Speed 14 mph (WNW)    
Max Wind Speed 24 mph    
Max Gust Speed 35 mph    
Visibility 10 miles    
Events      
T = Trace of Precipitation, MM = Missing Value Source: NWS Daily Summary

Daily Weather History Graph

Daily Weather History Graph

Search for Another Location

Airport or City:

Astronomy

Oct. 11, 2019 Rise Set
Actual Time 7:25 AM CDT 6:46 PM CDT
Civil Twilight 6:58 AM CDT 7:13 PM CDT
Nautical Twilight 6:27 AM CDT 7:44 PM CDT
Astronomical Twilight 5:55 AM CDT 8:16 PM CDT
Moon 6:15 PM CDT (10/11) 5:07 AM CDT (10/11)
Length of Visible Light 12h 15m
Length of Day
11h 20m
Waxing Gibbous, 96% of the Moon is Illuminated
Oct 11
Waxing Gibbous
Oct 13
Full
Oct 21
Last Quarter
Oct 27
New
Nov 4
First Quarter

Hourly Weather History & Observations

Time (CDT) Temp. Windchill Dew Point Humidity Pressure Visibility Wind Dir Wind Speed Gust Speed Precip Events Conditions
12:53 AM 41.0 °F 31.9 °F 34.0 °F 76% 30.05 in 10.0 mi NW 19.6 mph 28.8 mph N/A   Overcast
1:53 AM 41.0 °F 33.5 °F 33.1 °F 73% 30.06 in 10.0 mi NW 13.8 mph 26.5 mph N/A   Overcast
2:53 AM 41.0 °F 32.5 °F 30.9 °F 67% 30.07 in 10.0 mi NW 17.3 mph 31.1 mph N/A   Overcast
3:53 AM 39.9 °F 30.2 °F 30.9 °F 70% 30.08 in 10.0 mi NW 20.7 mph 27.6 mph N/A   Overcast
4:30 AM 39.9 °F 31.8 °F 30.0 °F 68% 30.09 in 10.0 mi NW 15.0 mph - N/A   Overcast
4:53 AM 39.9 °F 30.5 °F 30.0 °F 68% 30.10 in 10.0 mi NW 19.6 mph 29.9 mph N/A   Overcast
5:14 AM 39.9 °F 30.8 °F 28.9 °F 65% 30.10 in 10.0 mi NW 18.4 mph 33.4 mph N/A   Overcast
5:42 AM 39.0 °F 30.3 °F 28.9 °F 67% 30.10 in 10.0 mi WNW 16.1 mph 24.2 mph N/A   Overcast
5:53 AM 39.0 °F 31.0 °F 28.9 °F 67% 30.12 in 10.0 mi WNW 13.8 mph 24.2 mph N/A   Overcast
6:24 AM 39.0 °F 29.0 °F 28.0 °F 65% 30.12 in 10.0 mi NW 20.7 mph 29.9 mph N/A   Overcast
6:53 AM 39.0 °F 31.8 °F 28.0 °F 65% 30.14 in 10.0 mi WNW 11.5 mph 20.7 mph N/A   Overcast
7:53 AM 37.9 °F 29.2 °F 26.1 °F 62% 30.17 in 10.0 mi WNW 15.0 mph 26.5 mph N/A   Overcast
8:53 AM 39.0 °F 30.3 °F 26.1 °F 60% 30.18 in 10.0 mi WNW 16.1 mph 25.3 mph N/A   Overcast
9:53 AM 39.9 °F 30.5 °F 25.0 °F 55% 30.20 in 10.0 mi WNW 19.6 mph 28.8 mph N/A   Overcast
10:53 AM 42.1 °F 33.3 °F 25.0 °F 51% 30.22 in 10.0 mi WNW 19.6 mph 28.8 mph N/A   Mostly Cloudy
11:53 AM 43.0 °F 34.2 °F 24.1 °F 47% 30.21 in 10.0 mi WNW 20.7 mph 29.9 mph N/A   Mostly Cloudy
12:53 PM 45.0 °F 36.9 °F 24.1 °F 44% 30.19 in 10.0 mi WNW 20.7 mph 31.1 mph N/A   Scattered Clouds
1:53 PM 46.9 °F - 23.0 °F 39% 30.18 in 10.0 mi WNW 15.0 mph 29.9 mph N/A   Scattered Clouds
2:53 PM 48.0 °F - 23.0 °F 37% 30.18 in 10.0 mi West 13.8 mph 27.6 mph N/A   Scattered Clouds
3:53 PM 48.9 °F - 21.9 °F 35% 30.19 in 10.0 mi West 18.4 mph 29.9 mph N/A   Mostly Cloudy
4:53 PM 48.0 °F - 21.9 °F 36% 30.19 in 10.0 mi West 15.0 mph 27.6 mph N/A   Partly Cloudy
5:53 PM 46.0 °F 41.4 °F 21.0 °F 37% 30.19 in 10.0 mi WNW 9.2 mph 20.7 mph N/A   Clear
6:53 PM 42.1 °F 37.7 °F 23.0 °F 47% 30.20 in 10.0 mi West 6.9 mph - N/A   Clear
7:53 PM 37.9 °F 33.5 °F 26.1 °F 62% 30.21 in 10.0 mi West 5.8 mph - N/A   Clear
8:53 PM 37.9 °F 32.7 °F 27.0 °F 65% 30.21 in 10.0 mi West 6.9 mph - N/A   Clear
9:53 PM 37.0 °F 31.0 °F 26.1 °F 65% 30.20 in 10.0 mi West 8.1 mph - N/A   Clear
10:53 PM 35.1 °F 30.1 °F 27.0 °F 72% 30.20 in 10.0 mi WSW 5.8 mph - N/A   Clear
11:53 PM 35.1 °F 28.6 °F 27.0 °F 72% 30.19 in 10.0 mi West 8.1 mph - N/A   Clear